| time (UTC) | temp C | wind direction | speed KPH | gust KPH | rain 1hr cm | rain 24hr cm | rain mn cm | humidity % | barometer mb |
| 20260504034522 | 10 | 273 | 0.0 | 0.0 | 0.00 | 0.00 | 0.00 | 54 | 1016.4 |
| 20260504033016 | 10 | 273 | 0.0 | 0.0 | 0.00 | 0.00 | 0.00 | 54 | 1016.3 |
| 20260504031516 | 11 | 273 | 0.0 | 0.0 | 0.00 | 0.00 | 0.00 | 51 | 1016.3 |
| 20260504030034 | 11 | 273 | 0.0 | 3.2 | 0.00 | 0.00 | 0.00 | 48 | 1016.3 |
| 20260504024525 | 11 | 225 | 3.2 | 6.4 | 0.00 | 0.00 | 0.00 | 41 | 1016.4 |
| 20260504023023 | 8 | 239 | 1.6 | 4.8 | 0.00 | 0.00 | 0.00 | 48 | 1016.3 |
| 20260504021524 | 7 | 234 | 1.6 | 4.8 | 0.00 | 0.00 | 0.00 | 61 | 1016.3 |
| 20260504020032 | 6 | 213 | 0.0 | 0.0 | 0.00 | 0.00 | 0.00 | 66 | 1016.1 |
| 20260504014506 | 6 | 213 | 0.0 | 3.2 | 0.00 | 0.00 | 0.00 | 64 | 1016.0 |
| 20260504013006 | 6 | 248 | 0.0 | 3.2 | 0.00 | 0.00 | 0.00 | 61 | 1015.8 |
| 20260504011507 | 7 | 283 | 0.0 | 0.0 | 0.00 | 0.00 | 0.00 | 59 | 1015.6 |
| 20260504010004 | 8 | 283 | 0.0 | 0.0 | 0.00 | 0.00 | 0.00 | 56 | 1015.5 |
| 20260504004520 | 9 | 283 | 0.0 | 0.0 | 0.00 | 0.00 | 0.00 | 52 | 1015.5 |
| 20260504003005 | 10 | 283 | 0.0 | 0.0 | 0.00 | 0.00 | 0.00 | 48 | 1015.4 |
| 20260504001523 | 11 | 283 | 0.0 | 0.0 | 0.00 | 0.00 | 0.00 | 45 | 1015.3 |
| 20260504000007 | 13 | 283 | 0.0 | 0.0 | 0.00 | 0.00 | 0.00 | 37 | 1015.4 |
| 20260503234510 | 14 | 283 | 0.0 | 3.2 | 0.00 | 0.00 | 0.00 | 33 | 1015.3 |
| 20260503233007 | 15 | 253 | 1.6 | 3.2 | 0.00 | 0.00 | 0.00 | 28 | 1015.2 |
| 20260503231510 | 16 | 281 | 0.0 | 6.4 | 0.00 | 0.00 | 0.00 | 29 | 1015.0 |
| 20260503230008 | 16 | 216 | 3.2 | 6.4 | 0.00 | 0.00 | 0.00 | 24 | 1014.9 |
| 20260503224508 | 16 | 240 | 3.2 | 6.4 | 0.00 | 0.00 | 0.00 | 28 | 1014.9 |
| 20260503223011 | 16 | 271 | 4.8 | 12.9 | 0.00 | 0.00 | 0.00 | 26 | 1015.0 |
| 20260503221510 | 17 | 309 | 1.6 | 9.7 | 0.00 | 0.00 | 0.00 | 24 | 1014.9 |
| 20260503220021 | 17 | 242 | 1.6 | 11.3 | 0.00 | 0.00 | 0.00 | 21 | 1014.9 |
| 20260503214522 | 17 | 226 | 1.6 | 8.0 | 0.00 | 0.00 | 0.00 | 21 | 1015.0 |
| 20260503213018 | 17 | 340 | 4.8 | 16.1 | 0.00 | 0.00 | 0.00 | 22 | 1015.1 |
| 20260503211514 | 17 | 219 | 4.8 | 16.1 | 0.00 | 0.00 | 0.00 | 27 | 1015.1 |
| 20260503210016 | 17 | 279 | 6.4 | 17.7 | 0.00 | 0.00 | 0.00 | 25 | 1015.3 |
| 20260503204524 | 17 | 248 | 6.4 | 14.5 | 0.00 | 0.00 | 0.00 | 26 | 1015.3 |
| 20260503203013 | 17 | 219 | 3.2 | 16.1 | 0.00 | 0.00 | 0.00 | 27 | 1015.5 |
| 20260503201514 | 17 | 254 | 3.2 | 8.0 | 0.00 | 0.00 | 0.00 | 30 | 1015.5 |
| 20260503200015 | 16 | 254 | 4.8 | 14.5 | 0.00 | 0.00 | 0.00 | 26 | 1015.7 |
| 20260503194512 | 16 | 269 | 6.4 | 14.5 | 0.00 | 0.00 | 0.00 | 24 | 1016.0 |
| 20260503193014 | 16 | 22 | 4.8 | 11.3 | 0.00 | 0.00 | 0.00 | 26 | 1016.0 |
| 20260503191515 | 16 | 310 | 6.4 | 11.3 | 0.00 | 0.00 | 0.00 | 26 | 1016.3 |
| 20260503190017 | 15 | 284 | 3.2 | 11.3 | 0.00 | 0.00 | 0.00 | 29 | 1016.4 |
| 20260503184516 | 15 | 323 | 3.2 | 9.7 | 0.00 | 0.00 | 0.00 | 30 | 1017.0 |
| 20260503183019 | 15 | 5 | 4.8 | 14.5 | 0.00 | 0.00 | 0.00 | 29 | 1017.1 |
| 20260503181534 | 15 | 247 | 3.2 | 16.1 | 0.00 | 0.00 | 0.00 | 32 | 1017.1 |
| 20260503180027 | 15 | 209 | 1.6 | 11.3 | 0.00 | 0.00 | 0.00 | 36 | 1017.3 |
| 20260503174519 | 14 | 259 | 4.8 | 11.3 | 0.00 | 0.00 | 0.00 | 37 | 1017.4 |
| 20260503173016 | 13 | 352 | 8.0 | 16.1 | 0.00 | 0.00 | 0.00 | 33 | 1017.3 |
| 20260503171525 | 13 | 352 | 6.4 | 16.1 | 0.00 | 0.00 | 0.00 | 33 | 1017.7 |
| 20260503081526 | 2 | 320 | 0.0 | 3.2 | 0.00 | 0.00 | 0.00 | 69 | 1016.2 |
| 20260503071508 | 4 | 250 | 0.0 | 0.0 | 0.00 | 0.00 | 0.00 | 63 | 1015.6 |
| 20260503054518 | 2 | 301 | 0.0 | 3.2 | 0.00 | 0.00 | 0.00 | 70 | 1015.5 |
| 20260503053015 | 3 | 327 | 0.0 | 3.2 | 0.00 | 0.00 | 0.00 | 70 | 1015.6 |
| 20260503051508 | 3 | 327 | 0.0 | 3.2 | 0.00 | 0.00 | 0.00 | 69 | 1015.5 |
| 20260503050006 | 3 | 352 | 0.0 | 3.2 | 0.00 | 0.00 | 0.00 | 66 | 1015.4 |
| 20260503044503 | 3 | 290 | 0.0 | 3.2 | 0.00 | 0.00 | 0.00 | 69 | 1015.4 |
| 20260503043004 | 3 | 290 | 0.0 | 3.2 | 0.00 | 0.00 | 0.00 | 66 | 1015.4 |
| 20260503041516 | 3 | 290 | 0.0 | 3.2 | 0.00 | 0.00 | 0.00 | 62 | 1015.6 |
| 20260503040026 | 4 | 275 | 0.0 | 0.0 | 0.00 | 0.00 | 0.00 | 64 | 1015.6 |